• In Kazakhstan
  • List of Countries
  • For 7 days
  • Water Temperature
  • Weather Map
  • News
  • Weather Widgets
  • user-avatar
    Login

    Hourly Weather Megri

    Today, 18 February, Tuesday

    Time Temperature Precipitation Wind Pressure Humidity
    00:00 -8°C° 0 mm 1 mps 624 mmHg 85%
    01:00 -8°C° 0 mm 1 mps 624 mmHg 86%
    02:00 -8°C° 0 mm 1 mps 625 mmHg 86%
    03:00 -7°C° 0 mm 1 mps 625 mmHg 86%
    04:00 -7°C° 0 mm 1 mps 625 mmHg 86%
    05:00 -7°C° 0 mm 0 mps 625 mmHg 86%
    06:00 -6°C° 0 mm 0 mps 625 mmHg 86%
    07:00 -5°C° 0 mm 0 mps 626 mmHg 86%
    08:00 -3°C° 0 mm 1 mps 627 mmHg 86%
    09:00 -1°C° 0 mm 1 mps 627 mmHg 85%
    10:00 -1°C° 0 mm 1 mps 627 mmHg 89%
    11:00 0°C° 0 mm 1 mps 627 mmHg 93%
    12:00 0°C° 0 mm 1 mps 627 mmHg 97%
    13:00 0°C° 0 mm 1 mps 626 mmHg 97%
    14:00 +1°C° 0 mm 1 mps 626 mmHg 98%
    15:00 +1°C° 0 mm 1 mps 626 mmHg 98%
    16:00 0°C° 0 mm 1 mps 625 mmHg 96%
    17:00 -1°C° 0 mm 1 mps 625 mmHg 95%
    18:00 -2°C° 0 mm 1 mps 625 mmHg 94%
    19:00 -3°C° 0 mm 1 mps 625 mmHg 92%
    20:00 -3°C° 0 mm 1 mps 624 mmHg 90%
    21:00 -3°C° 0 mm 1 mps 624 mmHg 89%
    22:00 -3°C° 0 mm 1 mps 624 mmHg 90%
    23:00 -3°C° 0 mm 1 mps 624 mmHg 90%

    Tomorrow, 19 February, Wednesday

    Time Temperature Precipitation Wind Pressure Humidity
    00:00 -5°C° 0 mm 2 mps 624 mmHg 91%
    01:00 -5°C° 0 mm 2 mps 623 mmHg 92%
    02:00 -5°C° 0 mm 2 mps 623 mmHg 92%
    03:00 -5°C° 0 mm 2 mps 623 mmHg 92%
    04:00 -5°C° 0 mm 2 mps 623 mmHg 92%
    05:00 -3°C° 0 mm 1 mps 622 mmHg 93%
    06:00 -3°C° 0 mm 1 mps 622 mmHg 93%
    07:00 -2°C° 0 mm 1 mps 622 mmHg 92%
    08:00 -1°C° 0 mm 1 mps 622 mmHg 91%
    09:00 0°C° 0 mm 1 mps 623 mmHg 91%
    10:00 0°C° 0 mm 1 mps 622 mmHg 93%
    11:00 +1°C° 0 mm 1 mps 622 mmHg 95%
    12:00 +1°C° 0 mm 1 mps 621 mmHg 97%
    13:00 +1°C° 0.3 mm 1 mps 621 mmHg 98%
    14:00 +1°C° 0.3 mm 1 mps 620 mmHg 98%
    15:00 +1°C° 0.3 mm 1 mps 620 mmHg 98%
    16:00 +1°C° 0 mm 1 mps 620 mmHg 98%
    17:00 +1°C° 0 mm 1 mps 619 mmHg 97%
    18:00 0°C° 0 mm 1 mps 619 mmHg 96%
    19:00 0°C° 0 mm 1 mps 619 mmHg 95%
    20:00 0°C° 0 mm 1 mps 619 mmHg 94%
    21:00 -1°C° 0 mm 0 mps 618 mmHg 93%
    22:00 -1°C° 0.2 mm 0 mps 618 mmHg 94%
    23:00 -1°C° 0.2 mm 0 mps 618 mmHg 95%

    Day after tomorrow, 20 February, Thursday

    Time Temperature Precipitation Wind Pressure Humidity
    00:00 -1°C° 0.2 mm 0 mps 617 mmHg 95%
    01:00 0°C° 1.3 mm 1 mps 617 mmHg 96%
    02:00 +1°C° 1.3 mm 1 mps 617 mmHg 97%
    03:00 +1°C° 1.3 mm 1 mps 617 mmHg 97%
    04:00 +1°C° 0.2 mm 1 mps 617 mmHg 97%
    05:00 +1°C° 0.2 mm 1 mps 616 mmHg 97%
    06:00 +1°C° 0.2 mm 1 mps 616 mmHg 96%
    07:00 +1°C° 0.2 mm 1 mps 616 mmHg 97%
    08:00 +2°C° 0.2 mm 1 mps 616 mmHg 98%
    09:00 +2°C° 0.2 mm 1 mps 617 mmHg 99%
    10:00 +2°C° 0.2 mm 1 mps 616 mmHg 99%
    11:00 +1°C° 0.2 mm 0 mps 616 mmHg 99%
    12:00 +1°C° 0.2 mm 0 mps 616 mmHg 99%
    13:00 +1°C° 0.1 mm 0 mps 616 mmHg 99%
    14:00 +1°C° 0.1 mm 0 mps 616 mmHg 99%
    15:00 +1°C° 0.1 mm 0 mps 616 mmHg 99%
    16:00 +1°C° 0 mm 0 mps 616 mmHg 99%
    17:00 +1°C° 0 mm 0 mps 616 mmHg 98%
    18:00 0°C° 0 mm 0 mps 616 mmHg 98%
    19:00 0°C° 0 mm 0 mps 616 mmHg 98%
    20:00 +1°C° 0 mm 1 mps 616 mmHg 97%
    21:00 0°C° 0 mm 1 mps 616 mmHg 97%
    22:00 0°C° 0 mm 1 mps 616 mmHg 97%
    23:00 0°C° 0 mm 1 mps 617 mmHg 97%

    21 February, Friday

    Time Temperature Precipitation Wind Pressure Humidity
    00:00 0°C° 0 mm 1 mps 617 mmHg 96%
    01:00 0°C° 0 mm 1 mps 617 mmHg 96%
    02:00 0°C° 0 mm 1 mps 617 mmHg 96%
    03:00 0°C° 0 mm 1 mps 617 mmHg 96%
    04:00 0°C° 0 mm 1 mps 617 mmHg 95%
    05:00 0°C° 0 mm 1 mps 617 mmHg 95%
    06:00 0°C° 0 mm 1 mps 617 mmHg 95%
    07:00 +1°C° 0 mm 1 mps 618 mmHg 95%
    08:00 +1°C° 0 mm 1 mps 618 mmHg 96%
    09:00 +2°C° 0 mm 1 mps 619 mmHg 97%
    16:00 +2°C° 0 mm 1 mps 618 mmHg 96%
    17:00 +2°C° 0 mm 1 mps 619 mmHg 95%
    18:00 +1°C° 0 mm 1 mps 619 mmHg 94%
    19:00 +1°C° 0 mm 1 mps 619 mmHg 94%
    20:00 +1°C° 0 mm 1 mps 619 mmHg 93%
    21:00 +1°C° 0 mm 1 mps 619 mmHg 92%
    22:00 +1°C° 0 mm 1 mps 620 mmHg 92%
    23:00 +1°C° 0 mm 1 mps 620 mmHg 93%

    22 February, Saturday

    Time Temperature Precipitation Wind Pressure Humidity
    00:00 -1°C° 0 mm 2 mps 620 mmHg 93%
    01:00 +1°C° 0 mm 1 mps 620 mmHg 93%
    02:00 +1°C° 0 mm 1 mps 620 mmHg 93%
    03:00 +1°C° 0 mm 1 mps 620 mmHg 93%
    04:00 +1°C° 0 mm 1 mps 620 mmHg 93%
    05:00 +1°C° 0 mm 1 mps 620 mmHg 93%
    06:00 +1°C° 0 mm 1 mps 620 mmHg 93%
    07:00 +1°C° 0 mm 1 mps 620 mmHg 93%
    08:00 +2°C° 0 mm 1 mps 620 mmHg 93%
    09:00 +2°C° 0 mm 1 mps 621 mmHg 93%
    10:00 +2°C° 0 mm 1 mps 620 mmHg 92%
    11:00 +3°C° 0 mm 1 mps 620 mmHg 92%
    12:00 +2°C° 0 mm 0 mps 620 mmHg 92%
    13:00 +2°C° 0 mm 0 mps 620 mmHg 91%
    14:00 +2°C° 0 mm 0 mps 620 mmHg 91%
    15:00 +2°C° 0 mm 0 mps 619 mmHg 91%
    16:00 +1°C° 0 mm 0 mps 619 mmHg 90%
    17:00 0°C° 0 mm 0 mps 619 mmHg 90%
    18:00 0°C° 0 mm 0 mps 619 mmHg 90%
    19:00 -1°C° 0 mm 0 mps 619 mmHg 88%
    20:00 -1°C° 0 mm 0 mps 619 mmHg 87%
    21:00 -1°C° 0 mm 0 mps 619 mmHg 85%
    22:00 -1°C° 0 mm 0 mps 619 mmHg 85%
    23:00 -1°C° 0 mm 0 mps 619 mmHg 85%

    23 February, Sunday

    Time Temperature Precipitation Wind Pressure Humidity
    00:00 -2°C° 0 mm 0 mps 619 mmHg 84%
    01:00 -2°C° 0 mm 0 mps 619 mmHg 86%
    02:00 -1°C° 0 mm 1 mps 619 mmHg 88%
    03:00 -1°C° 0 mm 1 mps 619 mmHg 90%
    04:00 -1°C° 0 mm 1 mps 619 mmHg 91%
    05:00 -1°C° 0 mm 1 mps 619 mmHg 92%
    06:00 -1°C° 0 mm 1 mps 619 mmHg 93%
    07:00 0°C° 0 mm 1 mps 620 mmHg 91%
    08:00 +1°C° 0 mm 1 mps 620 mmHg 90%
    09:00 +2°C° 0 mm 1 mps 621 mmHg 89%
    10:00 +2°C° 0 mm 1 mps 621 mmHg 89%
    11:00 +3°C° 0 mm 1 mps 620 mmHg 89%
    12:00 +3°C° 0 mm 1 mps 620 mmHg 90%
    13:00 +3°C° 0 mm 1 mps 620 mmHg 90%
    14:00 +3°C° 0 mm 1 mps 620 mmHg 90%
    15:00 +3°C° 0 mm 1 mps 619 mmHg 89%
    16:00 +3°C° 0 mm 1 mps 619 mmHg 90%
    17:00 +2°C° 0 mm 1 mps 619 mmHg 91%
    18:00 +2°C° 0 mm 1 mps 619 mmHg 92%
    19:00 +1°C° 0 mm 1 mps 619 mmHg 92%
    20:00 +1°C° 0 mm 1 mps 619 mmHg 92%
    21:00 +1°C° 0 mm 1 mps 619 mmHg 92%
    22:00 +1°C° 0 mm 1 mps 619 mmHg 91%
    23:00 +1°C° 0 mm 1 mps 619 mmHg 91%
    Show more